User: anonymous   Login
Location: Mount Tamalpais State Park
(37.9108°N, 122.6128°W)
Time: 06:15:11
(UTC-07:00)
Language:

Cosmos 1814 Rocket - Orbit

View from above orbital plane
View from above orbital plane
View from above satellite
View from above satellite

Ground track
Ground track

The orbit data is extracted from the following two-line orbital elements,

1 17304U 87006B   16237.64428574  .00000020  00000-0  15180-4 0  9996
2 17304  74.0579 275.7092 0029865 191.2724 168.7765 14.37577796550687
Epoch (UTC): 24 August 2016 15:27:46
Eccentricity: 0.0029865
inclination: 74.0579°
perigee height: 745 km
apogee height: 788 km
right ascension of ascending node: 275.7092°
argument of perigee: 191.2724°
revolutions per day: 14.37577796
mean anomaly at epoch: 168.7765°
orbit number at epoch: 55068

The dashed part of the orbit path shows where the satellite is in the earth's shadow,  

DLR